Location: Beverley
(50.2667°N, 107.9667°W)
Time: 11:05:29
(UTC+00:00)

ISS - Visible Passes

Search period start: 22 January 2022 00:00
Search period end: 01 February 2022 00:00
Orbit: 413 x 422 km, 51.6° (Epoch: 22 January)

Date Brightness Start Highest point End Pass type
(mag) Time Alt. Az. Time Alt. Az. Time Alt. Az.
22 Jan -3.7 01:47:17 10° WSW 01:50:35 59° SSE 01:50:36 59° SSE visible
23 Jan -3.1 00:59:29 10° SW 01:02:39 42° SSE 01:04:39 19° E visible
23 Jan -1.5 02:36:00 10° W 02:37:35 25° W 02:37:35 25° W visible
24 Jan -4.0 01:48:00 10° WSW 01:51:20 86° NNW 01:51:36 74° ENE visible
25 Jan -3.8 01:00:01 10° WSW 01:03:21 77° SSE 01:05:35 19° ENE visible
25 Jan -1.6 02:36:53 10° W 02:38:31 26° WNW 02:38:31 26° WNW visible
26 Jan -3.8 01:48:52 10° W 01:52:12 68° N 01:52:30 63° NE visible
27 Jan -3.8 01:00:50 10° W 01:04:11 74° N 01:06:29 19° ENE visible
27 Jan -1.7 02:37:45 10° WNW 02:39:25 27° WNW 02:39:25 27° WNW visible
28 Jan -3.8 01:49:44 10° W 01:53:05 70° N 01:53:25 63° NE visible
29 Jan -3.7 01:01:44 10° W 01:05:03 66° N 01:07:27 17° E visible
29 Jan -1.8 02:38:34 10° WNW 02:40:23 29° W 02:40:23 29° W visible
30 Jan -3.9 01:50:34 10° WNW 01:53:56 89° S 01:54:27 60° ESE visible
31 Jan -3.8 01:02:35 10° WNW 01:05:56 77° N 01:08:36 15° E visible
31 Jan -1.8 02:39:27 10° W 02:41:32 29° WSW 02:41:32 29° WSW visible
